星链-6077 (STARLINK-6077 )

导读

STARLINK-6077是美国太空探索技术公司(SpaceX)于2023年3月29日发射的星链(Starlink)卫星,属于Starlink Group批次卫星。 它运行于近地轨道,是SpaceX星链星座的组成部分,星链星座计划最终部署超4万颗卫星,为全球提供高速低延迟互联网接入,支持偏远地区通信、移动网络、应急通信等场景,该星配备氪离子推进系统,具备轨道机动与自主避碰能力,退役后会再入大气层完全销毁减少空间碎片。

基本信息
目录编号:
56097
目录名称:
STARLINK-6077
国际标识:
2023-046E
轨道中心:
EARTH
卫星名称:
星链-6077
卫星全名:
星链-6077 (STARLINK-6077 )
卫星状态:
在轨 (已飞行1173 天)
发射日期:
2023-03-29 UTC
国别 :
美国 (US)
星等 :
--
轨道信息
数据来源 国际轨道数据
星历时间: 2026-06-14T23:29:29+0800
7小时前
查看轨道信息
半长轴: 6861.197km
偏心率: 0.0001503
轨道倾角: 43.002°
近地点辐角 277.014°
升交点赤经 286.730°
平近点角 83.054°
近地点: 482.028km
远地点: 484.092km
周期: 94.267分钟
每日圈数: 15.275765
详细信息
固有亮度:
5
最大亮度:
2.5
卫星平台:
Starlink v1.5
覆盖范围:
全球
运营商:
太空探索技术公司
运营商所在国:
美国
制造商(研发单位):
太空探索技术公司
制造商所在国:
美国
使用方式:
暂无
卫星简介
星链(Starlink)计划是由太空探索技术公司(SpaceX)提出的一个巨型低轨卫星互联网星座项目,计划在2019年至2024年间在太空搭建由约1.2万颗卫星组成的“星链”网络,其中1584颗将部署在地球上空550千米处的近地轨道,并从2020年开始工作。该卫星仍在工作。
2D轨道图
3D轨道图
轨道高度分析图
轨道倾角分析图
轨道综合分析图
查看轨道综合分析图